Terug naar catalogus

STARLINK-31801

ActiefCommunicatieVLEO
NORAD 59647·PAYLOAD·🇺🇸 United States

Gelanceerd May 3, 2024 vanaf Cape Canaveral Space Force Station

Loading…

Volgende Passages (komende 24 uur)

TLE

VersSource: CelesTrak SupGP

Epoch: Sep 14, 2026, 22:33 UTC

1 59647C 24082S   26257.94006944 -.00059667  00000+0 -21614-2 0  2572
2 59647  43.0024 151.4686 0001351 270.6406 323.6387 15.27604743    14

Volg STARLINK-31801 in realtime met AllMySat

Download on the App Store